sat.trackr.live / text

‹ back to catalog

RSW-01

NORAD 49112 · 2021-076A

PAYLOAD ACTIVE UNKNOWN

§ Identity

Operator
Country
PRC
Launch date
2021-08-24
Launch site
JSC
Launch vehicle
Mass (kg)
RCS (m²)

External: N2YO · Heavens-Above · Gunter

§ Orbital elements

Epoch: 2026-05-25T04:14:21.367680Z

Period
107.23 min
Inclination
86.4107°
Eccentricity
0.0017098
Mean motion
13.42860864 rev/d
Perigee alt
1,085.9 km
Apogee alt
1,111.4 km
Semi-major
7,476.8 km
B*
-2.2678e-4
RAAN
166.0357°
Arg perigee
124.6568°
Mean anomaly
235.6191°
Rev number
23,279

§ Raw data

RSW-011 49112U 21076A   26145.17663620 -.00000113  00000+0 -22678-3 0  99962 49112  86.4107 166.0357 0017098 124.6568 235.6191 13.42860864232792

JSON: /api/v1/satellites/49112 · /tle

For live sub-satellite position, see the globe view (requires WebGL).

§ Visibility from observer

Set your observer location to see the next 7 days of passes ≥ 10°. The values pass through the URL so the page stays shareable.

No JS? Fill the form by hand. The geolocation button needs JavaScript.